Big Rapids, MI

1:54 AM EDT on October 23, 2019 (GMT -0400)
Roben-Hood

Weather History for KRQB - August, 2019

Change the Weather History Date:

Monday, August 12, 2019

  Actual Average Record
Temperature  
Mean Temperature 73 °F -  
Max Temperature 82 °F 79 °F 95 °F (1988)
Min Temperature 64 °F 51 °F 40 °F (1982)
Cooling Degree Days 8    
Growing Degree Days 23 (Base 50)    
Moisture  
Dew Point 64 °F    
Average Humidity 75    
Maximum Humidity 94    
Minimum Humidity 53    
Precipitation  
Precipitation 0.00 in - - ()
Sea Level Pressure  
Sea Level Pressure 29.90 in    
Wind  
Wind Speed 2 mph (North)    
Max Wind Speed 10 mph    
Max Gust Speed -    
Visibility 10 miles    
Events      
Averages and records for this station are not official NWS values.
T = Trace of Precipitation, MM = Missing Value Source: NWS Daily Summary

Daily Weather History Graph

Daily Weather History Graph

Search for Another Location

Airport or City:

Astronomy

Aug. 12, 2019 Rise Set
Actual Time 6:42 AM EDT 8:50 PM EDT
Civil Twilight 6:11 AM EDT 9:21 PM EDT
Nautical Twilight 5:32 AM EDT 10:00 PM EDT
Astronomical Twilight 4:49 AM EDT 10:42 PM EDT
Moon 7:24 PM EDT (8/12) 3:46 AM EDT (8/12)
Length of Visible Light 15h 10m
Length of Day
14h 07m
Waxing Gibbous, 93% of the Moon is Illuminated
Aug 12
Waxing Gibbous
Aug 15
Full
Aug 23
Last Quarter
Aug 30
New
Sep 5
First Quarter

Hourly Weather History & Observations

Time (EDT) Temp. Heat Index Dew Point Humidity Pressure Visibility Wind Dir Wind Speed Gust Speed Precip Events Conditions
12:15 AM 68.5 °F - 64.4 °F 87% 29.96 in 10.0 mi Calm Calm - N/A   Overcast
12:16 AM 68.5 °F - 64.4 °F 87% 29.96 in 10.0 mi West 3.5 mph - N/A   Overcast
12:35 AM 68.2 °F - 63.9 °F 86% 29.96 in 10.0 mi West 8.1 mph - N/A   Overcast
12:58 AM 68.7 °F - 63.9 °F 84% 29.96 in 10.0 mi Calm Calm - N/A   Overcast
1:16 AM 68.0 °F - 63.9 °F 87% 29.95 in 10.0 mi Calm Calm - N/A   Overcast
1:35 AM 67.8 °F - 64.4 °F 89% 29.95 in 10.0 mi Calm Calm - N/A   Overcast
1:55 AM 68.0 °F - 64.0 °F 87% 29.95 in 10.0 mi Calm Calm - N/A   Overcast
2:19 AM 67.5 °F - 64.4 °F 90% 29.95 in 10.0 mi Calm Calm - N/A   Overcast
2:37 AM 68.0 °F - 64.4 °F 88% 29.95 in 10.0 mi Calm Calm - N/A   Overcast
2:55 AM 67.1 °F - 64.0 °F 90% 29.94 in 10.0 mi NE 5.8 mph - N/A   Overcast
3:15 AM 67.3 °F - 64.4 °F 90% 29.94 in 10.0 mi Calm Calm - N/A   Overcast
3:16 AM 67.5 °F - 64.2 °F 89% 29.94 in 10.0 mi Calm Calm - N/A   Overcast
3:35 AM 66.6 °F - 63.5 °F 90% 29.94 in 10.0 mi Calm Calm - N/A   Overcast
3:58 AM 66.7 °F - 64.0 °F 91% 29.94 in 10.0 mi West 3.5 mph - N/A   Overcast
4:15 AM 66.9 °F - 63.9 °F 90% 29.93 in 10.0 mi NNE 4.6 mph - N/A   Overcast
4:16 AM 66.7 °F - 63.9 °F 90% 29.93 in 10.0 mi Calm Calm - N/A   Overcast
4:35 AM 66.2 °F - 63.7 °F 92% 29.93 in 10.0 mi Calm Calm - N/A   Mostly Cloudy
4:55 AM 65.8 °F - 63.7 °F 93% 29.92 in 10.0 mi Calm Calm - N/A   Mostly Cloudy
5:18 AM 65.1 °F - 63.0 °F 93% 29.92 in 10.0 mi Calm Calm - N/A   Scattered Clouds
5:36 AM 64.9 °F - 63.1 °F 94% 29.92 in 10.0 mi ENE 3.5 mph - N/A   Mostly Cloudy
5:55 AM 65.3 °F - 63.5 °F 94% 29.93 in 10.0 mi West 3.5 mph - N/A   Overcast
6:15 AM 66.0 °F - 64.0 °F 93% 29.92 in 10.0 mi Calm Calm - N/A   Overcast
6:16 AM 66.2 °F - 63.9 °F 92% 29.92 in 10.0 mi Calm Calm - N/A   Overcast
6:39 AM 65.3 °F - 63.7 °F 94% 29.92 in 10.0 mi Calm Calm - N/A   Overcast
6:57 AM 65.3 °F - 63.7 °F 94% 29.92 in 10.0 mi Calm Calm - N/A   Overcast
7:15 AM 66.2 °F - 64.2 °F 93% 29.93 in 10.0 mi Calm Calm - N/A   Overcast
7:35 AM 66.2 °F - 64.4 °F 94% 29.93 in 10.0 mi Calm Calm - N/A   Overcast
7:36 AM 66.2 °F - 64.4 °F 94% 29.93 in 10.0 mi Calm Calm - N/A   Overcast
7:55 AM 66.7 °F - 64.6 °F 93% 29.93 in 10.0 mi NNW 3.5 mph - N/A   Overcast
8:17 AM 68.0 °F - 64.8 °F 89% 29.93 in 10.0 mi NNE 9.2 mph - N/A   Overcast
8:35 AM 68.2 °F - 64.4 °F 88% 29.93 in 10.0 mi NNE 10.4 mph - N/A   Overcast
8:36 AM 68.2 °F - 64.4 °F 88% 29.93 in 10.0 mi NNE 10.4 mph - N/A   Overcast
8:55 AM 68.4 °F - 64.4 °F 87% 29.94 in 10.0 mi North 6.9 mph - N/A   Overcast
8:56 AM 68.4 °F - 64.2 °F 87% 29.94 in 10.0 mi NNE 6.9 mph - N/A   Overcast
9:19 AM 69.8 °F - 64.4 °F 83% 29.94 in 10.0 mi Calm Calm - N/A   Overcast
9:36 AM 70.0 °F - 64.0 °F 81% 29.94 in 10.0 mi Calm Calm - N/A   Overcast
9:55 AM 70.9 °F - 64.2 °F 79% 29.93 in 10.0 mi NNE 9.2 mph - N/A   Overcast
9:56 AM 71.1 °F - 64.2 °F 79% 29.93 in 10.0 mi NNE 10.4 mph - N/A   Overcast
10:15 AM 72.1 °F - 62.8 °F 72% 29.92 in 10.0 mi NNE 4.6 mph - N/A   Overcast
10:39 AM 74.8 °F - 60.4 °F 61% 29.92 in 10.0 mi Calm Calm - N/A   Scattered Clouds
10:57 AM 75.7 °F - 61.3 °F 61% 29.93 in 10.0 mi Calm Calm - N/A   Clear
11:15 AM 76.1 °F - 62.1 °F 62% 29.93 in 10.0 mi Calm Calm - N/A   Scattered Clouds
11:16 AM 75.9 °F - 62.1 °F 62% 29.92 in 10.0 mi Calm Calm - N/A   Scattered Clouds
11:35 AM 76.3 °F - 62.6 °F 62% 29.92 in 10.0 mi ESE 3.5 mph - N/A   Scattered Clouds
11:55 AM 78.3 °F - 63.1 °F 60% 29.92 in 10.0 mi ESE 4.6 mph - N/A   Clear
12:00 PM 77.9 °F - 63.0 °F 60% 29.92 in 10.0 mi East 5.8 mph - N/A   Clear
12:18 PM 77.9 °F - 63.5 °F 61% 29.92 in 10.0 mi Calm Calm - N/A   Clear
12:36 PM 79.0 °F - 63.9 °F 60% 29.92 in 10.0 mi Calm Calm - N/A   Scattered Clouds
12:55 PM 79.3 °F - 63.7 °F 59% 29.91 in 10.0 mi SSW 6.9 mph - N/A   Scattered Clouds
12:56 PM 79.2 °F - 63.7 °F 59% 29.91 in 10.0 mi SW 6.9 mph - N/A   Scattered Clouds
1:19 PM 79.3 °F - 63.3 °F 58% 29.90 in 10.0 mi Calm Calm - N/A   Mostly Cloudy
1:37 PM 80.4 °F 82.0 °F 63.9 °F 57% 29.90 in 10.0 mi West 3.5 mph - N/A   Overcast
1:55 PM 80.2 °F 81.8 °F 63.5 °F 57% 29.89 in 10.0 mi Calm Calm - N/A   Scattered Clouds
1:56 PM 80.1 °F 81.6 °F 63.5 °F 57% 29.89 in 10.0 mi Calm Calm - N/A   Scattered Clouds
2:15 PM 80.6 °F 82.2 °F 63.9 °F 57% 29.89 in 10.0 mi Calm Calm - N/A   Mostly Cloudy
2:16 PM 80.4 °F 82.0 °F 63.7 °F 57% 29.89 in 10.0 mi Calm Calm - N/A   Mostly Cloudy
2:39 PM 80.8 °F 82.2 °F 63.5 °F 56% 29.87 in 10.0 mi Calm Calm - N/A   Mostly Cloudy
2:57 PM 81.1 °F 82.3 °F 62.6 °F 53% 29.87 in 10.0 mi NW 4.6 mph - N/A   Scattered Clouds
3:15 PM 80.6 °F 82.0 °F 63.5 °F 56% 29.87 in 10.0 mi North 3.5 mph - N/A   Clear
3:35 PM 80.8 °F 82.4 °F 64.0 °F 57% 29.86 in 10.0 mi Calm Calm - N/A   Scattered Clouds
3:36 PM 80.8 °F 82.4 °F 64.0 °F 57% 29.86 in 10.0 mi NNW 4.6 mph - N/A   Scattered Clouds
3:55 PM 81.0 °F 82.6 °F 64.2 °F 57% 29.84 in 10.0 mi Calm Calm - N/A   Scattered Clouds
4:18 PM 80.6 °F 82.2 °F 64.2 °F 57% 29.85 in 10.0 mi Calm Calm - N/A   Clear
4:35 PM 80.2 °F 81.5 °F 62.8 °F 55% 29.84 in 10.0 mi Calm Calm - N/A   Clear
4:36 PM 80.4 °F 81.6 °F 62.6 °F 54% 29.84 in 10.0 mi Calm Calm - N/A   Clear
4:55 PM 81.3 °F 82.6 °F 63.3 °F 54% 29.84 in 10.0 mi Calm Calm - N/A   Clear
5:15 PM 81.9 °F 83.2 °F 63.9 °F 54% 29.84 in 10.0 mi Calm Calm - N/A   Scattered Clouds
5:20 PM 82.0 °F 83.4 °F 63.9 °F 54% 29.84 in 10.0 mi Calm Calm - N/A   Scattered Clouds
5:38 PM 80.8 °F 82.5 °F 64.8 °F 58% 29.84 in 10.0 mi Calm Calm - N/A   Scattered Clouds
5:56 PM 80.1 °F 82.0 °F 65.5 °F 61% 29.84 in 10.0 mi Calm Calm - N/A   Scattered Clouds
6:15 PM 79.3 °F - 65.3 °F 62% 29.84 in 10.0 mi Calm Calm - N/A   Clear
6:35 PM 79.0 °F - 65.3 °F 63% 29.84 in 10.0 mi Calm Calm - N/A   Clear
6:36 PM 79.2 °F - 65.3 °F 62% 29.84 in 10.0 mi Calm Calm - N/A   Clear
6:59 PM 78.4 °F - 66.7 °F 67% 29.84 in 10.0 mi Calm Calm - N/A   Clear
7:17 PM 78.1 °F - 66.6 °F 68% 29.84 in 10.0 mi NW 3.5 mph - N/A   Clear
7:35 PM 77.9 °F - 66.9 °F 69% 29.84 in 10.0 mi NW 3.5 mph - N/A   Scattered Clouds
7:55 PM 77.0 °F - 67.1 °F 71% 29.84 in 10.0 mi NNW 4.6 mph - N/A   Scattered Clouds
7:56 PM 77.0 °F - 67.1 °F 71% 29.84 in 10.0 mi NNW 4.6 mph - N/A   Scattered Clouds
8:19 PM 76.3 °F - 66.7 °F 72% 29.85 in 10.0 mi NNW 3.5 mph - N/A   Mostly Cloudy
8:37 PM 75.7 °F - 65.7 °F 71% 29.85 in 10.0 mi NNW 4.6 mph - N/A   Mostly Cloudy
8:55 PM 74.7 °F - 65.5 °F 73% 29.85 in 10.0 mi North 3.5 mph - N/A   Scattered Clouds
8:56 PM 74.5 °F - 65.5 °F 73% 29.84 in 10.0 mi North 3.5 mph - N/A   Scattered Clouds
9:15 PM 73.6 °F - 65.3 °F 75% 29.84 in 10.0 mi Calm Calm - N/A   Clear
9:35 PM 72.9 °F - 65.3 °F 77% 29.85 in 10.0 mi Calm Calm - N/A   Clear
9:40 PM 72.9 °F - 65.3 °F 77% 29.85 in 10.0 mi Calm Calm - N/A   Clear
9:58 PM 72.1 °F - 65.1 °F 78% 29.85 in 10.0 mi Calm Calm - N/A   Clear
10:16 PM 71.2 °F - 64.9 °F 80% 29.85 in 10.0 mi Calm Calm - N/A   Clear
10:35 PM 70.2 °F - 64.6 °F 82% 29.85 in 10.0 mi Calm Calm - N/A   Clear
10:55 PM 70.2 °F - 64.4 °F 82% 29.85 in 10.0 mi Calm Calm - N/A   Clear
10:56 PM 70.2 °F - 64.4 °F 82% 29.85 in 10.0 mi NNE 3.5 mph - N/A   Clear
11:19 PM 70.0 °F - 64.2 °F 82% 29.84 in 10.0 mi Calm Calm - N/A   Clear
11:37 PM 69.3 °F - 63.7 °F 82% 29.84 in 10.0 mi NNE 9.2 mph - N/A   Clear
11:55 PM 69.1 °F - 63.5 °F 82% 29.84 in 10.0 mi North 5.8 mph - N/A   Clear